WV4O Weather Reports


time (UTC)temp
C
wind
direction
speed
KPH
gust
KPH
rain 1hr
cm
rain 24hr
cm
rain mn
cm
humidity
%
barometer
mb
20260504110517 15 232 9.7 14.5 0.00 0.00 0.00 68 1011.2
20260504100518 15 226 8.0 11.3 0.00 0.00 0.00 64 1011.2
20260504081516 16 226 11.3 19.3 0.00 0.00 0.00 57 1011.2
20260504080518 16 229 14.5 19.3 0.00 0.00 0.00 57 1011.1
20260504050517 17 234 14.5 24.1 0.00 0.00 0.00 50 1012.5
20260504045516 17 234 14.5 20.9 0.00 0.00 0.00 50 1012.5
20260504044516 17 229 14.5 22.5 0.00 0.00 0.00 49 1012.6
20260504043516 17 233 12.9 20.9 0.00 0.00 0.00 49 1012.7
20260504042517 17 235 14.5 20.9 0.00 0.00 0.00 50 1012.6
20260504041517 16 232 12.9 19.3 0.00 0.00 0.00 51 1012.7
20260504040517 16 234 12.9 19.3 0.00 0.00 0.00 51 1012.8
20260504035517 16 229 12.9 17.7 0.00 0.00 0.00 51 1012.9
20260504034517 16 232 12.9 19.3 0.00 0.00 0.00 52 1013.0
20260504033518 16 229 11.3 17.7 0.00 0.00 0.00 52 1013.2
20260504032518 16 230 11.3 17.7 0.00 0.00 0.00 51 1013.2
20260504031518 16 227 12.9 20.9 0.00 0.00 0.00 51 1013.2
20260504030559 16 232 9.7 17.7 0.00 0.00 0.00 52 1013.3
20260504025518 16 231 12.9 17.7 0.00 0.00 0.00 52 1013.2
20260504024518 16 218 11.3 16.1 0.00 0.00 0.00 52 1013.2
20260504023518 16 217 11.3 16.1 0.00 0.00 0.00 52 1013.4
20260504022518 16 220 9.7 16.1 0.00 0.00 0.00 51 1013.6
20260504021540 16 220 8.0 14.5 0.00 0.00 0.00 51 1013.6
20260504020519 17 215 8.0 12.9 0.00 0.00 0.00 51 1013.6
20260504015516 17 226 8.0 11.3 0.00 0.00 0.00 50 1013.6
20260504014516 17 220 8.0 12.9 0.00 0.00 0.00 49 1013.6
20260504013536 17 222 6.4 9.7 0.00 0.00 0.00 49 1013.7
20260504012516 17 213 4.8 6.4 0.00 0.00 0.00 48 1013.7
20260504011517 18 212 4.8 9.7 0.00 0.00 0.00 46 1013.6
20260504010517 18 217 6.4 9.7 0.00 0.00 0.00 45 1013.6
20260504005517 18 226 6.4 11.3 0.00 0.00 0.00 44 1013.6
20260504004517 19 228 8.0 12.9 0.00 0.00 0.00 44 1013.5
20260504003518 19 229 9.7 14.5 0.00 0.00 0.00 43 1013.4
20260504002517 20 223 9.7 14.5 0.00 0.00 0.00 42 1013.4
20260504001517 20 239 11.3 16.1 0.00 0.00 0.00 42 1013.4
20260504000517 20 227 9.7 19.3 0.00 0.00 0.00 41 1013.4
20260503235519 20 236 9.7 14.5 0.00 0.00 0.00 41 1013.4
20260503234518 20 229 14.5 25.7 0.00 0.00 0.00 40 1013.4
20260503233518 20 222 9.7 17.7 0.00 0.00 0.00 40 1013.5
20260503232558 20 235 9.7 16.1 0.00 0.00 0.00 40 1013.7
20260503231518 20 244 11.3 19.3 0.00 0.00 0.00 39 1014.0
20260503230519 20 243 14.5 20.9 0.00 0.00 0.00 38 1014.0
20260503225518 20 229 14.5 27.4 0.00 0.00 0.00 39 1013.8
20260503224518 20 239 11.3 30.6 0.00 0.00 0.00 39 1014.3
20260503223519 20 224 12.9 19.3 0.00 0.00 0.00 39 1014.6
20260503222517 20 229 11.3 19.3 0.00 0.00 0.00 38 1014.9
20260503221516 20 240 16.1 25.7 0.00 0.00 0.00 38 1014.6
20260503220516 20 219 11.3 19.3 0.00 0.00 0.00 38 1014.3
20260503215519 20 225 11.3 17.7 0.00 0.00 0.00 39 1014.4
20260503214516 20 227 17.7 29.0 0.00 0.00 0.00 39 1014.8
20260503213537 20 245 14.5 22.5 0.00 0.00 0.00 38 1014.8
20260503212516 20 230 11.3 24.1 0.00 0.00 0.00 39 1015.0
20260503211537 20 234 12.9 22.5 0.00 0.00 0.00 39 1015.0
20260503210537 20 238 16.1 24.1 0.00 0.00 0.00 38 1015.2
20260503205517 20 263 14.5 24.1 0.00 0.00 0.00 38 1015.3
20260503204517 20 236 12.9 24.1 0.00 0.00 0.00 38 1015.6
20260503203537 20 235 8.0 20.9 0.00 0.00 0.00 39 1015.5
20260503202517 20 250 12.9 27.4 0.00 0.00 0.00 39 1015.8
20260503201518 20 232 12.9 22.5 0.00 0.00 0.00 40 1016.0
20260503200518 19 232 12.9 27.4 0.00 0.00 0.00 40 1016.3
20260503195539 19 248 11.3 19.3 0.00 0.00 0.00 39 1016.3
20260503194518 19 240 16.1 27.4 0.00 0.00 0.00 39 1016.6
20260503193518 19 234 12.9 25.7 0.00 0.00 0.00 39 1016.7
20260503192521 19 261 14.5 25.7 0.00 0.00 0.00 39 1017.4
20260503191540 19 258 9.7 22.5 0.00 0.00 0.00 39 1017.0
20260503190517 18 254 17.7 29.0 0.00 0.00 0.00 39 1017.3
20260503185516 18 234 12.9 19.3 0.00 0.00 0.00 40 1017.3
20260503184516 18 235 12.9 22.5 0.00 0.05 0.00 40 1017.6
20260503183518 18 238 11.3 20.9 0.00 0.05 0.00 41 1017.7
20260503182516 18 260 12.9 29.0 0.00 0.05 0.00 41 1017.9
20260503181516 18 233 12.9 24.1 0.00 0.05 0.00 40 1017.8
20260503180516 18 256 12.9 25.7 0.00 0.05 0.00 40 1018.0
20260503175518 17 227 11.3 19.3 0.00 0.05 0.00 42 1017.9
20260503174516 17 240 11.3 19.3 0.00 0.05 0.00 42 1018.1
20260503173538 17 228 11.3 20.9 0.00 0.05 0.00 41 1018.1
20260503172518 17 236 12.9 22.5 0.00 0.05 0.00 42 1018.4
20260503171517 17 214 9.7 17.7 0.00 0.05 0.00 43 1018.5
20260503170518 17 209 8.0 16.1 0.00 0.05 0.00 42 1018.4
20260503150516 14 196 8.0 16.1 0.00 0.05 0.00 51 1019.2
20260503130538 9 224 4.8 9.7 0.00 0.05 0.00 87 1019.7